Date String (YYYY-MM-DD hh:mm:ss) UTC,Instrument flags,Ambient pressure (hPa),Sample flow (lpm),Bypass flow (lpm),Sample temperature (°C),Ambient temperature (°C),ASC tube jacket temperature (°C),LED temperature (°C),Box temperature (°C),Sample RH (%),Span deviation,Mass concentration (μg/m³),Mass concentration (μg/m³),Mass concentration (μg/m³)
DateTimeUTC,F1_M11,P_M11,Q1_M11,Q2_M11,T1_M11,T2_M11,T3_M11,T4_M11,T5_M11,U1_M11,ZSPAN_M11,X0_M11,X2_M11,X1_M11
2023-01-24 13:00:00,,0824.7,5.00,0.00,22.2,20.3,00.0,31.0,23.7,12.8,-002.1,0021.24,0018.72,0018.43
2023-01-24 13:01:00,,0824.6,5.02,0.00,22.1,20.2,00.0,31.0,23.7,12.8,-002.0,0021.18,0018.72,0018.46
2023-01-24 13:02:00,,0824.7,5.00,0.00,22.1,20.2,00.0,31.0,23.7,12.8,-002.1,0021.12,0018.73,0018.47
2023-01-24 13:03:00,,0824.4,5.00,0.00,22.1,20.7,00.0,30.9,23.8,12.8,-002.3,0021.20,0018.73,0018.46
2023-01-24 13:04:00,,0824.5,4.99,0.00,22.2,21.8,00.0,30.9,24.0,12.8,-002.2,0021.16,0018.72,0018.45
2023-01-24 13:05:00,,0824.6,4.99,0.00,22.3,22.7,00.0,30.9,24.2,12.8,-002.1,0021.09,0018.70,0018.45
2023-01-24 13:06:00,,0824.7,4.98,0.00,22.4,22.5,00.0,31.0,24.3,12.8,-002.0,0021.11,0018.77,0018.51
2023-01-24 13:07:00,,0824.5,5.00,0.00,22.4,22.0,00.0,31.0,24.2,12.8,-002.0,0021.20,0018.85,0018.59
2023-01-24 13:08:00,,0824.7,5.00,0.00,22.4,21.5,00.0,31.0,24.1,12.9,-002.2,0021.41,0019.00,0018.73
2023-01-24 13:09:00,,0824.6,5.01,0.00,22.3,21.2,00.0,31.0,24.0,13.0,-002.3,0021.55,0019.14,0018.85
2023-01-24 13:10:00,,0824.7,5.01,0.00,22.3,21.0,00.0,31.0,24.0,13.0,-002.3,0021.78,0019.29,0018.99
2023-01-24 13:11:00,,0824.7,5.02,0.00,22.3,20.7,00.0,31.0,23.9,13.0,-002.1,0021.90,0019.37,0019.06
2023-01-24 13:12:00,,0824.7,4.99,0.00,22.2,20.6,00.0,31.0,23.9,13.1,-002.3,0021.99,0019.42,0019.10
2023-01-24 13:13:00,,0824.6,5.01,0.00,22.2,20.4,00.0,31.0,23.8,13.1,-002.2,0021.92,0019.41,0019.13
2023-01-24 13:14:00,,0824.7,4.99,0.00,22.2,20.4,00.0,31.0,23.8,13.2,-002.2,0021.91,0019.51,0019.24
2023-01-24 13:15:00,,0824.7,5.00,0.00,22.2,20.3,00.0,31.0,23.8,13.2,-002.2,0022.13,0019.67,0019.40
2023-01-24 13:16:00,,0824.7,5.00,0.00,22.1,20.3,00.0,31.0,23.7,13.3,-002.4,0022.75,0019.83,0019.52
2023-01-24 13:17:00,,0824.7,5.00,0.00,22.1,20.2,00.0,30.9,23.7,13.3,-002.4,0023.18,0019.92,0019.59
2023-01-24 13:18:00,,0824.7,4.99,0.00,22.1,20.2,00.0,30.9,23.7,13.4,-002.3,0023.50,0019.99,0019.63
2023-01-24 13:19:00,,0824.8,5.03,0.00,22.0,20.2,00.0,30.9,23.6,13.4,-002.4,0023.58,0019.97,0019.62
2023-01-24 13:20:00,,0824.7,5.02,0.00,22.0,20.5,00.0,30.9,23.7,13.4,-002.4,0023.51,0019.94,0019.58
2023-01-24 13:21:00,,0824.8,5.01,0.00,22.1,21.7,00.0,30.9,24.0,13.3,-002.6,0023.43,0019.89,0019.54
2023-01-24 13:22:00,,0824.9,5.00,0.00,22.2,22.6,00.0,30.9,24.2,13.2,-002.6,0023.35,0019.85,0019.49
2023-01-24 13:23:00,,0824.9,4.99,0.00,22.3,22.5,00.0,30.9,24.2,13.2,-002.4,0023.30,0019.83,0019.49
2023-01-24 13:24:00,,0824.9,4.99,0.00,22.3,21.8,00.0,31.0,24.1,13.2,-002.4,0023.44,0019.88,0019.52
2023-01-24 13:25:00,,0824.9,5.00,0.00,22.2,21.3,00.0,31.0,23.9,13.2,-002.4,0023.45,0019.86,0019.49
2023-01-24 13:26:00,,0824.9,5.00,0.00,22.2,20.9,00.0,31.0,23.8,13.2,-002.4,0023.49,0019.85,0019.45
2023-01-24 13:27:00,,0824.9,5.00,0.00,22.2,20.5,00.0,31.0,23.7,13.3,-002.3,0023.09,0019.83,0019.45
2023-01-24 13:28:00,,0824.9,5.01,0.00,22.1,20.4,00.0,30.9,23.7,13.3,-002.3,0022.85,0019.86,0019.51
2023-01-24 13:29:00,,0824.9,5.00,0.00,22.1,20.4,00.0,30.9,23.7,13.4,-002.3,0022.68,0019.89,0019.55
2023-01-24 13:30:00,,0824.9,4.99,0.00,22.1,20.4,00.0,30.9,23.7,13.4,-002.2,0022.56,0019.93,0019.59
2023-01-24 13:31:00,,0824.9,4.99,0.00,22.1,20.2,00.0,30.9,23.7,13.4,-002.1,0022.60,0019.95,0019.60
2023-01-24 13:32:00,,0824.9,5.00,0.00,22.0,20.1,00.0,30.9,23.6,13.4,-002.0,0022.65,0020.00,0019.66
2023-01-24 13:33:00,,0824.9,5.02,0.00,22.0,19.9,00.0,30.9,23.5,13.4,-001.9,0022.71,0020.06,0019.72
2023-01-24 13:34:00,,0824.9,5.00,0.00,21.9,19.8,00.0,30.8,23.5,13.5,-002.0,0022.95,0020.13,0019.77
2023-01-24 13:35:00,,0824.9,5.00,0.00,21.9,19.8,00.0,30.8,23.4,13.5,-002.0,0023.17,0020.16,0019.80
2023-01-24 13:36:00,,0824.9,5.02,0.00,21.9,20.8,00.0,30.8,23.6,13.5,-001.9,0023.08,0020.12,0019.78
2023-01-24 13:37:00,,0824.9,4.98,0.00,22.0,22.0,00.0,30.8,23.9,13.4,-001.9,0022.96,0020.05,0019.72
2023-01-24 13:38:00,,0824.9,5.00,0.00,22.1,22.6,00.0,30.8,24.1,13.4,-001.9,0022.89,0020.00,0019.67
2023-01-24 13:39:00,,0824.9,5.00,0.00,22.2,22.1,00.0,30.8,24.1,13.3,-002.0,0022.90,0019.91,0019.56
2023-01-24 13:40:00,,0824.9,4.98,0.00,22.2,21.6,00.0,30.9,24.0,13.3,-002.0,0022.87,0019.79,0019.45
2023-01-24 13:41:00,,0824.9,5.00,0.00,22.2,21.2,00.0,30.9,23.9,13.3,-002.1,0022.84,0019.70,0019.35
2023-01-24 13:42:00,,0824.9,4.99,0.00,22.1,20.8,00.0,30.9,23.8,13.3,-002.0,0022.77,0019.66,0019.31
2023-01-24 13:43:00,,0824.9,5.02,0.00,22.1,20.6,00.0,30.9,23.7,13.3,-002.0,0022.71,0019.60,0019.26
2023-01-24 13:44:00,,0824.9,4.98,0.00,22.1,20.2,00.0,30.9,23.6,13.4,-001.9,0022.65,0019.57,0019.23
2023-01-24 13:45:00,,0824.9,5.00,0.00,22.0,19.9,00.0,30.8,23.5,13.4,-001.9,0022.44,0019.56,0019.23
2023-01-24 13:46:00,,0824.9,5.02,0.00,21.9,19.5,00.0,30.8,23.3,13.5,-002.0,0022.23,0019.58,0019.27
2023-01-24 13:47:00,,0824.9,5.00,0.00,21.8,19.2,00.0,30.8,23.2,13.6,-002.1,0022.50,0019.70,0019.36
2023-01-24 13:48:00,,0824.9,4.99,0.00,21.7,19.0,00.0,30.7,23.1,13.7,-002.1,0022.79,0019.78,0019.44
2023-01-24 13:49:00,,0824.9,5.01,0.00,21.7,19.8,00.0,30.7,23.2,13.7,-002.2,0022.89,0019.79,0019.46
2023-01-24 13:50:00,,0825.0,4.99,0.00,21.8,21.1,00.0,30.7,23.5,13.7,-002.1,0023.00,0019.86,0019.53
2023-01-24 13:51:00,,0824.9,5.01,0.00,21.9,22.1,00.0,30.7,23.7,13.6,-002.1,0023.65,0019.93,0019.60
2023-01-24 13:52:00,,0824.9,4.99,0.00,21.9,21.7,00.0,30.7,23.8,13.5,-002.1,0023.63,0019.97,0019.66
2023-01-24 13:53:00,,0824.9,5.00,0.00,21.9,21.1,00.0,30.7,23.6,13.5,-002.2,0023.62,0019.98,0019.69
2023-01-24 13:54:00,,0824.9,5.00,0.00,21.9,20.5,00.0,30.7,23.5,13.6,-002.4,0023.63,0020.01,0019.74
2023-01-24 13:55:00,,0824.9,5.00,0.00,21.8,20.0,00.0,30.7,23.3,13.6,-002.6,0023.79,0020.09,0019.81
2023-01-24 13:56:00,,0824.9,5.00,0.00,21.7,19.7,00.0,30.7,23.2,13.7,-002.6,0023.97,0020.16,0019.85
2023-01-24 13:57:00,,0824.9,4.98,0.00,21.7,19.6,00.0,30.6,23.2,13.7,-002.5,0024.03,0020.17,0019.83
2023-01-24 13:58:00,,0824.9,5.01,0.00,21.6,19.6,00.0,30.6,23.2,13.8,-002.5,0023.84,0020.10,0019.79
2023-01-24 13:59:00,,0824.9,4.99,0.00,21.6,19.6,00.0,30.6,23.1,13.8,-002.6,0023.56,0020.07,0019.79
